Volver al catálogo

STARLINK-4001

ActivoComunicacionesVLEO
NORAD 52628·PAYLOAD·🇺🇸 United States

Lanzado May 14, 2022 desde Cape Canaveral Space Force Station

Loading…

Próximos Pases (próximas 24 horas)

TLE

ActualizadoSource: CelesTrak SupGP

Época: Sep 14, 2026, 21:32 UTC

1 52628C 22052AG  26257.89770833 -.00024463  00000+0 -69983-3 0  2576
2 52628  53.1562 142.4879 0001281  93.7628 210.2108 15.35414541    17

Sigue STARLINK-4001 en tiempo real con AllMySat

Download on the App Store